DLH493 CYVR-EDDF

Flight info

Callsign DLH493
Flight time N/A
Altitude 33000
Route SEATN DCT 5230N12000W 58N110W 6130N10000W 64N090W 6530N08000W 6630N07000W/M084F330 DCT DARUB DCT 67N050W 6630N04000W 6530N03000W 6430N02000W 6230N01000W DCT NALAN/N0484F330 DCT FORTY DCT ODMIX DCT CUTEL DCT LARDI DCT TOPPA DCT AMGOD DCT PETIK DCT SOGPO DCT DIXAT DIXAT1A
Aircraft A346/H-SDE2E3FGHIJ3J4J5M1RWXY/LB1D1

Departure

Time 2026-05-04 00:07
Airport Vancouver International Airport (CYVR)

Arrival

Time N/A
Airport Frankfurt Main Airport (EDDF)
Time Latitude Longitude Altitude Speed Heading
2026-05-03 23:35 49.19967 -123.18370 24 ft 0 kts 190°
2026-05-03 23:48 49.19979 -123.18366 24 ft 2 kts 197°
2026-05-03 23:49 49.19993 -123.18358 24 ft 2 kts 214°
2026-05-03 23:49 49.20004 -123.18343 24 ft 2 kts 227°
2026-05-03 23:49 49.20013 -123.18325 25 ft 2 kts 240°
2026-05-03 23:49 49.20020 -123.18304 25 ft 2 kts 253°
2026-05-03 23:50 49.20023 -123.18282 25 ft 2 kts 267°
2026-05-03 23:50 49.20023 -123.18266 25 ft 2 kts 276°
2026-05-03 23:50 49.20021 -123.18256 25 ft 0 kts 281°
2026-05-03 23:54 49.20022 -123.18260 25 ft 1 kts 280°
2026-05-03 23:54 49.20026 -123.18298 25 ft 5 kts 279°
2026-05-03 23:54 49.20034 -123.18372 25 ft 8 kts 280°
2026-05-03 23:55 49.20043 -123.18468 25 ft 9 kts 265°
2026-05-03 23:55 49.20052 -123.18510 25 ft 3 kts 333°
2026-05-03 23:55 49.20068 -123.18510 26 ft 0 kts 15°
2026-05-03 23:56 49.20096 -123.18511 26 ft 6 kts 342°
2026-05-03 23:56 49.20127 -123.18572 27 ft 8 kts 291°
2026-05-03 23:56 49.20142 -123.18671 27 ft 10 kts 281°
2026-05-03 23:57 49.20157 -123.18792 27 ft 12 kts 281°
2026-05-03 23:57 49.20173 -123.18928 27 ft 11 kts 280°
2026-05-03 23:57 49.20139 -123.19021 27 ft 12 kts 206°
2026-05-03 23:57 49.20047 -123.19056 25 ft 14 kts 191°
2026-05-03 23:58 49.19937 -123.19087 24 ft 16 kts 190°
2026-05-03 23:58 49.19836 -123.19113 24 ft 14 kts 190°
2026-05-03 23:58 49.19732 -123.19141 24 ft 15 kts 190°
2026-05-03 23:58 49.19630 -123.19168 24 ft 11 kts 189°
2026-05-03 23:59 49.19550 -123.19153 24 ft 12 kts 152°
2026-05-03 23:59 49.19474 -123.19070 24 ft 14 kts 142°
2026-05-03 23:59 49.19393 -123.18973 24 ft 15 kts 142°
2026-05-03 23:59 49.19305 -123.18868 24 ft 16 kts 142°
2026-05-04 00:00 49.19215 -123.18761 26 ft 16 kts 142°
2026-05-04 00:00 49.19128 -123.18657 27 ft 15 kts 142°
2026-05-04 00:00 49.19044 -123.18555 27 ft 14 kts 142°
2026-05-04 00:00 49.18970 -123.18452 27 ft 14 kts 123°
2026-05-04 00:01 49.18939 -123.18302 27 ft 15 kts 101°
2026-05-04 00:01 49.18922 -123.18155 27 ft 13 kts 100°
2026-05-04 00:01 49.18905 -123.18005 27 ft 15 kts 100°
2026-05-04 00:01 49.18885 -123.17834 25 ft 17 kts 100°
2026-05-04 00:02 49.18864 -123.17651 24 ft 17 kts 100°
2026-05-04 00:02 49.18843 -123.17464 24 ft 18 kts 99°
2026-05-04 00:02 49.18823 -123.17284 24 ft 17 kts 100°
2026-05-04 00:02 49.18802 -123.17101 24 ft 17 kts 100°
2026-05-04 00:03 49.18780 -123.16911 24 ft 18 kts 100°
2026-05-04 00:03 49.18758 -123.16719 24 ft 18 kts 100°
2026-05-04 00:03 49.18740 -123.16562 24 ft 14 kts 100°
2026-05-04 00:03 49.18722 -123.16406 24 ft 15 kts 100°
2026-05-04 00:04 49.18676 -123.16271 24 ft 12 kts 130°
2026-05-04 00:04 49.18635 -123.16146 24 ft 14 kts 104°
2026-05-04 00:04 49.18615 -123.15984 22 ft 16 kts 100°
2026-05-04 00:04 49.18590 -123.15814 22 ft 15 kts 118°
2026-05-04 00:05 49.18496 -123.15769 23 ft 14 kts 199°
2026-05-04 00:05 49.18454 -123.15886 24 ft 9 kts 277°
2026-05-04 00:05 49.18457 -123.15923 24 ft 0 kts 278°
2026-05-04 00:06 49.18498 -123.16288 24 ft 66 kts 280°
2026-05-04 00:06 49.18612 -123.17275 24 ft 121 kts 279°
2026-05-04 00:06 49.18786 -123.18802 25 ft 167 kts 280°
2026-05-04 00:06 49.18994 -123.20674 261 ft 183 kts 281°
2026-05-04 00:07 49.19203 -123.22578 766 ft 181 kts 280°
2026-05-04 00:07 49.19377 -123.24524 1148 ft 189 kts 279°
2026-05-04 00:07 49.19539 -123.26551 1589 ft 194 kts 278°
2026-05-04 00:07 49.19696 -123.28621 1888 ft 201 kts 278°
2026-05-04 00:08 49.19861 -123.30810 2119 ft 213 kts 278°
2026-05-04 00:08 49.20038 -123.33098 2346 ft 226 kts 278°
2026-05-04 00:08 49.20237 -123.35569 2564 ft 243 kts 278°
2026-05-04 00:08 49.20460 -123.38208 2855 ft 258 kts 281°
2026-05-04 00:09 49.21078 -123.40820 3296 ft 265 kts 303°
2026-05-04 00:09 49.22063 -123.43176 3920 ft 267 kts 305°
2026-05-04 00:09 49.23100 -123.45541 4563 ft 269 kts 306°
2026-05-04 00:09 49.24144 -123.47914 5195 ft 272 kts 306°
2026-05-04 00:10 49.25187 -123.50288 5837 ft 274 kts 307°
2026-05-04 00:10 49.26504 -123.52350 6418 ft 274 kts 334°
2026-05-04 00:10 49.28307 -123.52995 7055 ft 272 kts
2026-05-04 00:10 49.30109 -123.52151 7672 ft 274 kts 30°
2026-05-04 00:11 49.31755 -123.50680 8281 ft 277 kts 31°
2026-05-04 00:11 49.33454 -123.49214 8858 ft 281 kts 30°
2026-05-04 00:11 49.35171 -123.47779 9457 ft 283 kts 29°
2026-05-04 00:11 49.36926 -123.46340 10069 ft 285 kts 29°
2026-05-04 00:12 49.38703 -123.44898 10495 ft 295 kts 28°
2026-05-04 00:12 49.40557 -123.43403 10731 ft 310 kts 28°
2026-05-04 00:12 49.42518 -123.41828 11012 ft 325 kts 28°
2026-05-04 00:12 49.44559 -123.40194 11251 ft 339 kts 28°
2026-05-04 00:13 49.46722 -123.38462 11504 ft 354 kts 28°
2026-05-04 00:13 49.48945 -123.36682 11758 ft 367 kts 28°
2026-05-04 00:13 49.51230 -123.34851 12192 ft 375 kts 28°
2026-05-04 00:13 49.53540 -123.33000 12817 ft 377 kts 28°
2026-05-04 00:14 49.55843 -123.31152 13411 ft 379 kts 28°
2026-05-04 00:14 49.58192 -123.29265 14019 ft 382 kts 28°
2026-05-04 00:14 49.60524 -123.27388 14586 ft 385 kts 27°
2026-05-04 00:14 49.62911 -123.25465 15172 ft 388 kts 27°
2026-05-04 00:15 49.65286 -123.23552 15734 ft 390 kts 27°
2026-05-04 00:15 49.67692 -123.21609 16271 ft 393 kts 27°
2026-05-04 00:15 49.70141 -123.19630 16798 ft 397 kts 27°
2026-05-04 00:15 49.72578 -123.17660 17316 ft 400 kts 27°
2026-05-04 00:16 49.75034 -123.15674 17826 ft 403 kts 27°
2026-05-04 00:16 49.77519 -123.13661 18320 ft 406 kts 27°
2026-05-04 00:16 49.80035 -123.11619 18834 ft 408 kts 27°
2026-05-04 00:16 49.82520 -123.09602 19338 ft 410 kts 27°
2026-05-04 00:17 49.85070 -123.07528 19838 ft 412 kts 27°
2026-05-04 00:17 49.87597 -123.05469 20352 ft 414 kts 27°
2026-05-04 00:17 49.90132 -123.03404 20824 ft 416 kts 26°
2026-05-04 00:17 49.92680 -123.01326 21283 ft 418 kts 26°
2026-05-04 00:18 49.95270 -122.99209 21721 ft 421 kts 26°
2026-05-04 00:18 49.97877 -122.97076 22149 ft 424 kts 26°
2026-05-04 00:18 50.00457 -122.94964 22570 ft 426 kts 26°
2026-05-04 00:18 50.03080 -122.92814 22991 ft 429 kts 26°